Regional Weather Roundup
Issued by NWS Charleston, SC

Current Version | Previous Version | Graphics & Text | Print | Product List | Glossary On
Versions: 1 2 3 4 5 6 7 8 9 10 11 12 13 14 15 16 17 18 19 20 21 22 23 24 25 26 27 28 29 30 31 32 33 34 35 36 37 38 39 40 41 42 43 44 45 46 47 48 49 50
000
ASUS42 KCHS 160810
RWRCHS
REGIONAL WEATHER ROUNDUP
NATIONAL WEATHER SERVICE CHARLESTON SC
400 AM EDT TUE SEP 16 2014

NOTE: "FAIR" INDICATES FEW OR NO CLOUDS BELOW 12,000 FEET WITH NO
SIGNIFICANT WEATHER AND/OR OBSTRUCTIONS TO VISIBILITY.

NOT ALL STATIONS ARE QUALITY CONTROLLED BY THE NATIONAL
WEATHER SERVICE. USE DATA WITH CAUTION...ESPECIALLY
DEWPOINT OBSERVATIONS.

SCZ027-030-031-034>040-042>050-160900-
...SOUTH CAROLINA...

CITY           SKY/WX    TMP DP  RH WIND       PRES   REMARKS
N CHARLESTON   FOG       75  73  94 CALM      30.06S VSB 1/2
WATERFRONT PRK   N/A     81 N/A N/A N5          N/A
FORT JOHNSON   NOT AVBL
MOUNT PLEASANT CLOUDY    73  73 100 CALM      30.06S FOG
JOHNS ISLAND   CLOUDY    75  75 100 CALM      30.06S FOG
PINOPOLIS        N/A     77  73  88 CALM      29.99F
MONCKS CORNER  NOT AVBL
SUMMERVILLE    FOG       72  72 100 CALM      30.07S VSB 3/4
BEAUFORT MCAS  MOCLDY    75  73  93 CALM      30.05F
BEAUFORT ARPT  FAIR      75  75 100 CALM      30.04F
HILTON HEAD IS MOCLDY    75  75 100 CALM      30.06S FOG
GEORGETOWN     NOT AVBL
WALTERBORO     PTSUNNY   72 N/A N/A CALM      30.07S
ORANGEBURG     LGT RAIN  74  71  91 CALM      30.07R
BARNWELL       FAIR      73  73 100 CALM      30.08R FOG
AIKEN          LGT RAIN  72  72 100 CALM      30.11F
MANNING        CLOUDY    73 N/A N/A CALM      30.06S
KINGSTREE      NOT AVBL
COLUMBIA       CLOUDY    74  71  91 CALM      30.06F
SUMTER         MOCLDY    72  69  90 W1        30.05S
FLORENCE       CLOUDY    73  70  90 CALM      30.06S
MYRTLE BEACH   CLOUDY    72  68  88 N3        30.05F
N MYRTLE BEACH MOCLDY    71  68  90 CALM      30.05S

$$

GAZ063-065-086>088-099>101-113>116-118-119-134-136>141-150-160900-
...GEORGIA...

CITY           SKY/WX    TMP DP  RH WIND       PRES   REMARKS
SAVANNAH ARPT  CLOUDY    74  71  91 CALM      30.06S
HUNTER AAF     FOG       73  73 100 NW5       30.04S VSB 3/4
FORT STEWART   MOCLDY    73  73 100 CALM      30.05S
STATESBORO     NOT AVBL
SYLVANIA       PTSUNNY   74  73  98 CALM      30.08S
CLAXTON        NOT AVBL
THOMSON        CLOUDY    74  74 100 CALM      30.12F
AUGUSTA-BUSH   CLOUDY    73  73 100 CALM      30.07S FOG
AUGUSTA-DANIEL CLOUDY    74  72  93 N5        30.09S FOG
SWAINSBORO     FAIR      73  73 100 CALM      30.08S
VIDALIA        FOG       72  72 100 CALM      30.07F VSB 1/4
ALMA           MOCLDY    72  71  97 CALM      30.07F
WAYCROSS       CLOUDY    76  76  99 N3        30.07F
JESUP            N/A     75  73  94 SW3       30.06F FOG
BRUNSWICK      MOCLDY    73  72  94 W3        30.06F
SAINT SIMONS   MOCLDY    76  72  87 W7        30.05F

$$

SCZ027-028-034-036>038-045-046-048>050-GAZ119-141-160900-
...LAKE AND SUPPLEMENTAL COASTAL OBSERVATIONS...

STATION/POSITION TIME  TEMP    WIND        PRES    WAVE   SWELL
                       AIR SEA DIR/SP/G            HT/PER HT/PER/DIR
                 (UTC) (F)     (DEG/KT/KT) (MB)    (FT/S) (FT/S/D)
UPR LAKE MARION  NOT AVBL
WINYAH BAY       0700   73        CALM     1018.0S
LAKE MURRAY      0700   73     310/  2/  3 1017.9F
ACE BASIN NERRS  0700   73        CALM     1018.0S
FORT PULASKI     0800   78     280/  5/  7 1017.7F
SAPELO ISLAND    0700   77     250/  8     1018.0S

$$

ANZ835-935-AMZ111-154-330-350-352-354-374-450-454-472-160900-
...C-MAN AND BUOY OBSERVATIONS...

STATION/POSITION TIME  TEMP    WIND        PRES    WAVE   SWELL
                       AIR SEA DIR/SP/G            HT/PER HT/PER/DIR
                 (UTC) (F)     (DEG/KT/KT) (MB)    (FT/S) (FT/S/D)
FOLLY BEACH CMAN 0700   76     360/  2/  2 1018.2F
BUOY 41004       0800   81 83  280/  2/  2 1017.0F   2/ 8   2/ 8
BUOY 41008       0800   81 84  270/ 10/ 12 1017.2F   2/ 6   2/ 80/ 6
5E ST. MARYS GA  0800      84                N/A     2/ 9
FRYING PAN BUOY  NOT AVBL
BUOY 41025       0800   74     310/  4/  6 1017.1F   3/ 8   2/ 50/ 8
CAPE LOOKOUT NC  0700   75     130/  6/  6 1017.5F
BUOY 41002       0712   80 83  280/ 12/ 14 1018.1F   3/ 6   2/360/ 6
BUOY 41010       0800   83 85  240/  8/  8 1018.3F   2/ 8   2/ 30/ 8
BUOY 41012       NOT AVBL
ST AUGUSTINE FL  0800   76     250/  5/  6 1019.2S
CAPERS NEARSHORE 0700   78     340/  4/  6   N/A
FRIPP NEARSHORE  NOT AVBL


$$


USA.gov is the U.S. government's official web portal to all federal, state and local government web resources and services.